Погода Колпашево

Погода Колпашево : погода сейчас, прогноз погоды и архив. Всё, что Вы хотите узнать о погоде Колпашево!

Хотите узнать прогноз погоды Колпашево? Тогда Вам сюда: Погода Колпашево

Поиск расширенной информации на нашем сайте:

Другие новости

Новости СМИ2

Главная страница сайта

Новости сайта

03.07.2017

Напоминаем, что на нашем специализированном сайте Метеоцентр.Азия вы можете получить высокодетализированные автоматические прогнозы погоды по пунктам России, СНГ и мира в авиационном формате (включающие направление и скорость ветра, видимость, явления погоды, количество и форму облачности, нижнюю и верхнюю границу облачности).

Рекомендуем: Видео и фото на свадьбу bachinskiy.kiev.ua.

Погода Колпашево - сегодня

Время (UTC), дата Ветер
(°,м/с) 
Видим.   Явления Облачность Т
(°С)
Тd
(°С)
f(%) Тe
(°С)
Pmin
(гПа)
dP
(гПа)
Po
(мм)
O2
(г/м3)
Тmin Tmax R s Состояние
почвы
06 09.12.17 100 (В) 20000 м    3/0 верхняя 
[Ci fib]
-14.9 -16.4 88 -15  1029.3  -1.6  764  327           
09 09.12.17 тихо ()   20000 м    3/0 верхняя 
[Ci fib]
-14.6 -16.1 88 -15  1028  -1.3  763  326           
12 09.12.17 070 (В) 20000 м    ясно 
-15.6 -17.1 88 -16  1026.6  -1.4  762  327    -13.2       
15 09.12.17 040 (СВ) 20000 м    ясно 
-17.5 -19.1 87 -18  1026  -0.6  762  329           
18 09.12.17 070 (В) 20000 м    ясно 
-16.2 -17.7 88 -16  1023.5  -2.4  760  327           
21 09.12.17 060 (СВ) 20000 м    ясно 
-19.6 -21.5 85 -20  1023.2  -0.4  760  331           
00 10.12.17 080 (В) 20000 м    3/0 верхняя 
[Ci fib]
-17.2 -19.1 85 -17  1022.1  -1.1  759  328  -19.8      30  равномерный
сухой снег
100% 
03 10.12.17 130 (ЮВ) 20000 м    9/0 средняя, верхняя 
[Ac trans|Ci fib]
-16 -17.6 87 -16  1022.7  0.7  759  326           
06 10.12.17 130 (ЮВ) 20000 м    9/3 600 м средняя, верхняя 
[Sc|Ac trans|Cc]
-14.1 -15.7 88 -14  1023.1  0.5  760  324           
09 10.12.17 120 (ЮВ) 10 км  слаб. снег  10/5 600 м средняя 
[Sc|As trans]
-12.2 -13.5 90 -12  1024.2  1.1  761  322           
12 10.12.17 140 (ЮВ) 4000 м  слаб. снег  10/6 900 м средняя 
[Sc|As trans]
-11.1 -12.4 90 -13  1024.6  0.5  761  321    -11.1  0.0     
15 10.12.17 120 (ЮВ) 4000 м  слаб. снег  10/8 600 м средняя 
[Sc|As trans]
-10.4 -11.5 92 -10  1024.2  -0.4  761  320           
18 10.12.17 080 (В) 4000 м  слаб. снег  10/8 600 м средняя 
[Sc|As op]
-9.3 -10.3 92 -9  1024.2  761  318           
21 10.12.17 110 (В) 4000 м  слаб. снег  10/10 600 м 
[Sc]
-8.5 -9.4 93 -10  1024.2  0.1  761  317           
00 11.12.17 130 (ЮВ) 4000 м  слаб. снег  10/10 570 м 
[Sc]
-7.7 -8.5 94 -9  1024.5  0.3  761  316  -11.1    0.2  30  равномерный
сухой снег
100% 
03 11.12.17 160 (Ю) 10 км  слаб. снег  9/9 600 м 
[Sc]
-6.5 -7.4 93 -8  1025.6  1.2  762  315           
06 11.12.17 170 (Ю) 10 км  слаб. ливневой снег  9/9 300 м кучево-дожд. 
[Cb cap]
-6.5 -7.6 92 -6  1027.1  1.4  763  316           
09 11.12.17 170 (Ю) 20000 м    10/0 средняя, верхняя 
[Ac trans|Ci sp]
-9 -10 92 -11  1027.7  0.5  763  319           
12 11.12.17 тихо ()   10 км  дымка{ливн. осадки}  10/0 средняя, верхняя 
[Ac trans|Ci sp]
-13.1 -13.6 96 -13  1028.5  0.7  764  324    -6.3  0.3     
15 11.12.17 тихо ()   4000 м  дымка  4/0 средняя, верхняя 
[Ac trans|Cs]
-16.7 -18.2 88 -17  1029.2  0.6  764  329           
18 11.12.17 тихо ()   20000 м    3/0 средняя, верхняя 
[Ac trans|Ci fib]
-19.4 -21.1 86 -19  1029.6  0.3  764  333           
21 11.12.17 тихо ()   4000 м  слаб. снег  9/0 средняя 
[Ac As]
-15.1 -16.1 92 -15  1029.8  0.4  765  328           
00 12.12.17 тихо ()   2000 м  слаб. снег  9/0 средняя 
[Ac As]
-14.8 -16.1 90 -15  1030.4  0.6  765  327  -19.4    0.0  29  равномерный
сухой снег
100% 
03 12.12.17 тихо ()   4000 м  слаб. снег  10/0 средняя 
[As op]
-15.7 -17.1 89 -16  1031.4  766  329           
06 12.12.17 тихо ()   20000 м  в посл. час снег  10/0 верхняя 
[Cs]
-13.4 -14.8 89 -13  1031.8  0.5  766  326           
Время (UTC), дата Ветер
(°,м/с) 
Видим.   Явления Облачность Т
(°С)
Тd
(°С)
f(%) Тe
(°С)
Pmin
(гПа)
dP
(гПа)
Po
(мм)
O2
(г/м3)
Тmin Tmax R s Состояние
почвы

Для получения пояснительной информации подведите курсор к названию столбца.

ПОГОДА Колпашево - архив

Всё, что Вы хотите узнать о погоде Колпашево - удобно и подробно!

Выберите нужную дату (начиная с 1 января 2015* года) и нажмите кнопку "Найти".
Будут отображены архивные сводки погоды по пункту Колпашево, начиная с указанной даты.


Отображать данные в формате CSV (для использования в таблицах Excel)


Внимание! Наш архив погоды предназначен исключительно для личного некоммерческого использования в познавательных целях. Если Вам необходимы официальные справки о состоянии погоды (для производственных, юридических, коммерческих и т.п. целей), обращайтесь в органы Росгидромета.

*Примечание: данная дата относится к архиву по метеостанциям СССР (Россия, СНГ, Балтия).
Архив по метеостанциям Зарубежной Европы и Азии (кроме Китая) хранится 10 дней, по другим регионам земного шара (Китай, Африка, Америка, Австралия, Океания) - 1 день.

Колпашево - район местоположения метеостанции


Название, широта, долгота, высота метеостанции:
Колпашево 58.3°ш. 82.9°д. 75 м над ур. моря [Российская Федерация]

Дополнительная информация

В oтличие oт бoльшинства пoгoдных сайтoв мы публикуем пoдрoбную метеoинфoрмацию в детальнoм прoфессиoнальнoм фoрмате.

Характеристики температуры и влажнoсти вoздуха измеряются на высoте 2 м в тени вдали oт зданий и деревьев.
Скoрoсть ветра измеряется на высoте 10 м (на урoвне рoста челoвека скoрoсть ветра ниже в 1.5-2 раза). Если метеoстанция нахoдится в гoрoде или в лесу, тo скoрoсть ветра занижена на 2-4 м/с пo сравнению с oткрытым местoм. Скoрoсть ветра над акватoриями крупных рек и oзёр, а также на вершинах хoлмoв на 2-5 м/с выше, чем в oбычных услoвиях.
Атмoсфернoе давление в разных тoчках местнoсти мoжет значительнo oтличаться oт давления на метеoстанции, в зависимoсти oт услoвий рельефа (при пoдъёме на 10 м давление пoнижается примернo на 1 мм рт.ст.).